[Iaude] MPEC J276: 2024 JZ14 [a=2.08,e=0.47,i=4.5,H=24.0]

mpec at cfa.harvard.edu mpec at cfa.harvard.edu
Sun May 12 07:53:37 EDT 2024


M.P.E.C. 2024-J276                                 Issued 2024 May 12, 11:51 UT

     The Minor Planet Electronic Circulars contain information on unusual
         minor planets, routine data on comets and natural satellites,
         and occasional editorial announcements.  They are published
    on behalf of Division F of the International Astronomical Union by the
          Minor Planet Center, Smithsonian Astrophysical Observatory,
                          Cambridge, MA 02138, U.S.A.
			  
             Prepared using the Tamkin Foundation Computer Network

                              MPC at CFA.HARVARD.EDU
            URL https://www.minorplanetcenter.net/    ISSN 1523-6714

                                   2024 JZ14                                    


Observations:
     K24J14Z* C2024 05 08.54051616 28 27.126+02 03 37.90         21.87wXEJ276F52
     K24J14Z  C2024 05 08.55298416 28 28.999+02 03 58.17         22.39wXEJ276F52
     K24J14Z  C2024 05 08.56548116 28 30.932+02 04 19.62         22.65wXEJ276F52
     K24J14Z  C2024 05 08.57799716 28 32.860+02 04 40.38         22.00wXEJ276F52
     K24J14Z KC2024 05 09.30886016 30 38.624+02 25 05.41         21.76GVEJ276V06
     K24J14Z KC2024 05 09.31204516 30 39.128+02 25 10.70               VEJ276V06
     K24J14Z KC2024 05 09.31523016 30 39.647+02 25 16.21         21.83GVEJ276V06
     K24J14Z KC2024 05 09.31841216 30 40.151+02 25 21.54         22.25GVEJ276V06
     K24J14Z  C2024 05 09.51911116 31 13.501+02 31 10.39         21.61GVEJ276F51
     K24J14Z  C2024 05 09.51993116 31 13.625+02 31 11.93         22.12GVEJ276F51
     K24J14Z 3C2024 05 09.59185516 31 24.946+02 33 14.72         22.24GVEJ276T14
     K24J14Z 3C2024 05 09.59284316 31 25.103+02 33 16.39         22.13GVEJ276T14
     K24J14Z 3C2024 05 09.59382216 31 25.261+02 33 18.08         22.12GVEJ276T14
     K24J14Z 1C2024 05 12.01804 16 38 39.51 +03 43 26.2          22.1 VXEJ276033
     K24J14Z 1C2024 05 12.02166 16 38 40.17 +03 43 33.2          22.3 VXEJ276033
     K24J14Z 1C2024 05 12.02528 16 38 40.81 +03 43 39.0          22.0 VXEJ276033
     K24J14Z KC2024 05 12.24266116 39 21.86 +03 50 12.9          21.8 GVEJ276H21
     K24J14Z KC2024 05 12.24844116 39 22.86 +03 50 23.3          22.2 GVEJ276H21
     K24J14Z KC2024 05 12.25219816 39 23.51 +03 50 30.2          22.0 GVEJ276H21

Observer details:
033 Karl Schwarzschild Observatory, Tautenburg.  Observers S. Melnikov, C.
    Hogner, F. Ludwig, M. Hartmann, B. Stecklum.  Measurer B. Stecklum.
    1.34-m f/3 Schmidt + CCD.
F51 Pan-STARRS 1, Haleakala.  Observers J. Herman, T. Lowe, P. Minguez, A.
    Schultz, I. Smith.  Measurers K. Chambers, T. de Boer, J. Fairlamb, H.
    Gao, M. Huber, C.-C. Lin, E. Magnier, Y. Ramanjooloo, R. Wainscoat, R.
    Weryk.  1.8-m Ritchey-Chretien + CCD.
F52 Pan-STARRS 2, Haleakala.  Observers J. Herman, T. Lowe, P. Minguez, A.
    Schultz, I. Smith.  Measurers K. Chambers, T. de Boer, J. Fairlamb, H.
    Gao, M. Huber, C.-C. Lin, E. Magnier, Y. Ramanjooloo, R. Wainscoat, R.
    Weryk.  1.8-m Ritchey-Chretien + CCD.
H21 Astronomical Research Observatory, Westfield.  Observer R. Holmes.
    Measurers T. Linder, R. Holmes, L. Horn.  1.3-m f/4.0 astrograph + CCD.
T14 Canada-France-Hawaii Telescope, Maunakea.  Observers R. Wainscoat, H.
    Januszewski, T. Burdullis.  Measurers R. Weryk, R. Wainscoat.  3.6-m f/4.1
    reflector + CCD.
V06 Catalina Sky Survey-Kuiper.  Observer H. Groeller.  Measurers T. Beuden,
    V. F. Carvajal, D. Fay, J. B. Fazekas, D. C. Fuls, A. R. Gibbs, A. D.
    Grauer, H. Groeller, J. K. Hogan, R. A. Kowalski, S. M. Larson, G. J.
    Leonard, D. Rankin, R. L. Seaman, F. C. Shelly, K. W. Wierzchos.  1.55-m
    reflector + 1K CCD.

Orbital elements:
2024 JZ14                                                Earth MOID = 0.1074 AU
Epoch 2024 Mar. 31.0 TT = JDT 2460400.5                 Veres                   
M 332.13404              (2000.0)            P               Q                  
n   0.32780178     Peri.  114.65909     +0.11043559     +0.99357247             
a   2.0831882      Node   161.62991     -0.93800527     +0.11246090             
e   0.4744826      Incl.    4.52322     -0.32855760     +0.01289531             
P   3.01           H   24.04          G   0.15           U   9                  
Residuals in seconds of arc
240508 F52  0.4+  0.0     240509 V06  0.1-  0.0     240512 033  0.6+  0.4+
240508 F52  0.1-  0.5-    240509 F51  0.0   0.0     240512 033  0.8+  0.2-
240508 F52  0.1+  0.1+    240509 F51  0.1-  0.2+    240512 H21  0.0   0.1-
240508 F52  0.1+  0.1-    240509 T14  0.0   0.0     240512 H21  0.0   0.0
240509 V06  0.4-  0.2+    240509 T14  0.0   0.0     240512 H21  0.0   0.1+
240509 V06  0.4-  0.0     240509 T14  0.0   0.0
240509 V06  0.1-  0.1+    240512 033  0.1+  0.2-

Ephemeris:
2024 JZ14                a,e,i = 2.08, 0.47, 5                   q = 1.0948
Date    TT    R. A. (2000) Decl.     Delta      r    Elong.  Phase     V
2024 04 12    15 31 53.0 -06 55 31   0.3923  1.3508   147.9    23.3    23.8
...
2024 04 27    16 00 24.2 -02 39 47   0.2863  1.2672   152.4    21.6    22.9
...
2024 05 05    16 19 01.6 +00 28 35   0.2411  1.2270   152.2    22.6    22.5
...
2024 05 11    16 35 34.0 +03 13 59   0.2123  1.1994   150.5    24.5    22.2
2024 05 12    16 38 36.0 +03 43 24   0.2079  1.1950   150.2    24.9    22.2
2024 05 13    16 41 43.4 +04 13 17   0.2036  1.1907   149.7    25.3    22.1
...
2024 05 19    17 02 35.8 +07 21 32   0.1804  1.1666   146.7    28.5    21.9
...
2024 05 27    17 37 11.1 +11 46 12   0.1559  1.1391   141.4    33.7    21.7
...
2024 06 11    19 04 41.8 +18 44 09   0.1301  1.1046   130.7    44.2    21.5

M. P. C. Staff               (C) Copyright 2024 MPC           M.P.E.C. 2024-J276





More information about the Iaude mailing list